This is the latest recevied weather packets stored in our database for station/object KB1JDX. If no packets are shown the sender has not sent any weather packets the latest 10 day(s).
| Time | Temp. | Humidity | Pressure | Rain* | Wind** | Luminosity | Snow |
|---|---|---|---|---|---|---|---|
| 1787416691 | 21.67° C | 100% | 1017.1 hPa | 0 mm | 0 m/s | - | - |
| 1787415492 | 21.67° C | 100% | 1016.9 hPa | 0 mm | 0 m/s | - | - |
| 1787415425 | 21.67° C | 100% | 1016.8 hPa | 0 mm | 0 m/s | - | - |
| 1787414291 | 21.67° C | 100% | 1017.2 hPa | 0 mm | 0 m/s | - | - |
| 1787413091 | 21.67° C | 100% | 1017.1 hPa | 0 mm | 0 m/s | - | - |
| 1787411891 | 21.67° C | 100% | 1017.3 hPa | 0 mm | 0 m/s | - | - |
| 1787411825 | 21.67° C | 100% | 1017.3 hPa | 0 mm | 0 m/s | - | - |
| 1787410691 | 21.67° C | 100% | 1017.3 hPa | 0 mm | 0 m/s | - | - |
| 1787409491 | 21.67° C | 100% | 1017.4 hPa | 0 mm | 0 m/s | - | - |
| 1787408291 | 21.11° C | 100% | 1017.5 hPa | 0 mm | 0 m/s | - | - |
| 1787408225 | 21.11° C | 100% | 1017.5 hPa | 0 mm | 0 m/s | - | - |
| 1787407091 | 20° C | 100% | 1017.5 hPa | 0 mm | 0 m/s | - | - |
| 1787405891 | 20° C | 100% | 1017.8 hPa | 0 mm | 0 m/s | - | - |
| 1787404691 | 19.44° C | 100% | 1017.7 hPa | 0 mm | 0 m/s | - | - |
| 1787404625 | 19.44° C | 100% | 1017.6 hPa | 0 mm | 0 m/s | - | - |
| 1787403492 | 18.89° C | 100% | 1017.5 hPa | 0 mm | 0 m/s | - | - |
| 1787402291 | 18.89° C | 100% | 1017.7 hPa | 0 mm | 0 m/s | - | - |
| 1787401093 | 18.33° C | 100% | 1017.7 hPa | 0 mm | 0 m/s | - | - |
| 1787401025 | 18.33° C | 100% | 1017.7 hPa | 0 mm | 0 m/s | - | - |
| 1787399891 | 18.33° C | 100% | 1017.7 hPa | 0 mm | 0 m/s | - | - |
| 1787398691 | 18.33° C | 100% | 1017.9 hPa | 0 mm | 0 m/s | - | - |
| 1787397491 | 18.33° C | 100% | 1017.7 hPa | 0 mm | 0 m/s | - | - |
| 1787397425 | 18.33° C | 100% | 1017.6 hPa | 0 mm | 0 m/s | - | - |
| 1787396291 | 18.33° C | 100% | 1017.6 hPa | 0 mm | 0 m/s | - | - |
| 1787395091 | 17.78° C | 100% | 1017.4 hPa | 0 mm | 0 m/s | - | - |
* Rain latest hour (hover to see other rain measurements)
** Current wind speed in m/s (hover to see current wind gust speed)